Regional Weather Roundup
Issued by NWS

Home | Current Version | Previous Version | Graphics & Text | Print | Product List | Glossary On
Versions: 1 2 3 4 5 6 7 8 9 10 11 12 13 14 15 16 17 18 19 20 21 22 23 24 25 26 27 28 29 30 31 32 33 34 35 36 37 38 39 40 41 42 43 44 45 46 47 48 49 50
000
ASUS43 KLSX 020410
RWRMO

WEATHER SUMMARY FOR MISSOURI
NATIONAL WEATHER SERVICE SPRINGFIELD MO
1100 PM CDT SUN MAY 01 2016

NOTE: "FAIR" INDICATES FEW OR NO CLOUDS BELOW 12,000 FEET WITH NO
       SIGNIFICANT WEATHER AND/OR OBSTRUCTIONS TO VISIBILITY.
       CURRENT SKY AND/OR WEATHER CONDITIONS ARE NOT AVAILABLE FOR
       CHILLICOTHE AND FARMINGTON.

MOZ001>031-035>038-043-044-053-054-020500-
...NORTHERN AND WESTERN MISSOURI...

CITY           SKY/WX    TMP DP  RH WIND       PRES   REMARKS
KANSAS CTY INT CLOUDY    49  44  83 N7        30.13R
KANSAS C DTWN  CLOUDY    52  45  77 NW5       30.13R
LEE`S SUMMIT   CLOUDY    50  44  80 NW8       30.13R
ST JOSEPH      CLOUDY    49  44  83 N7        30.14R
CHILLICOTHE      N/A     50  46  86 CALM      30.12R
KIRKSVILLE     CLOUDY    48  45  89 NW6       30.08S

$$
MOZ066>068-077>081-088>096-101>105-020500-
...SOUTHWEST MISSOURI...

CITY           SKY/WX    TMP DP  RH WIND       PRES   REMARKS
SPRINGFIELD    CLEAR     53  44  71 NW5       30.07R
JOPLIN         CLOUDY    55  48  77 NW8       30.10R

$$
MOZ032>034-039>042-045>050-055>058-069>072-020500-
...CENTRAL MISSOURI...

CITY           SKY/WX    TMP DP  RH WIND       PRES   REMARKS
COLUMBIA       CLOUDY    53  46  77 NW9       30.07R
JEFFERSON CITY CLEAR     52  46  80 NW7       30.07R
ROLLA          CLEAR     52  47  83 NW8       30.04R
SEDALIA        CLOUDY    53  47  79 N8        30.11R
WHITEMAN AFB   CLOUDY    53  49  88 N12       30.10R
WARRENSBURG    CLOUDY    50  45  81 NW8       30.11R
OSAGE BEACH    PTCLDY    52  41  66 N6        30.08R

$$
MOZ051-052-059>065-020500-
...EAST CENTRAL MISSOURI...

CITY           SKY/WX    TMP DP  RH WIND       PRES   REMARKS
ST LOUIS INTL  PTCLDY    57  49  74 NW13      30.01S
SPIRIT OF STL  CLEAR     56  50  80 NW13      30.01R
ST CHARLES     CLEAR     55  51  86 NW14      30.01R

$$
MOZ072>076-082>087-097>100-106>115-020500-
...SOUTH CENTRAL AND SOUTHEAST MISSOURI...

CITY           SKY/WX    TMP DP  RH WIND       PRES   REMARKS
CAPE GIRARDEAU CLEAR     64  50  60 N9        29.99R
FARMINGTON     CLEAR     58  45  62 NW5       30.01S
POPLAR BLUFF   CLEAR     65  49  56 N8        29.98R
WEST PLAINS    CLEAR     55  44  66 NW5       30.04R

$$




USA.gov is the U.S. government's official web portal to all federal, state and local government web resources and services.